Terminal Aerodrome Forecast
Issued by NWS Upton, NY

Home | Current Version | Previous Version | Text Only | Print | Product List | Glossary On
Versions: 1 2 3 4 5 6 7 8 9 10 11 12 13 14 15 16 17 18 19 20 21 22 23 24 25 26 27 28 29 30 31 32
742
FTUS41 KOKX 100804 AAA
TAFJFK
TAF AMD
KJFK 100804Z 1008/1112 29011KT P6SM FEW045
     FM101400 28013G20KT P6SM BKN050
     FM110000 28010KT P6SM SCT050=

USA.gov is the U.S. government's official web portal to all federal, state and local government web resources and services.